Temp
16 16 16 16 16 16 16 15 14 14 14 13 13 13 13 13 13 13 14 12 12 12 12 11 11 10 10 9 10 10 9 9 9 9 8 8 8 8 8 7 7 7 7
16 17 16 16 16 16 15 15 15 14 14 14 13 13 12 13 12 12 13 11 11 12 11 11 11 10 10 9 9 9 9 9 9 9 9 9 8 8 8 7 7 7 7
16 16 16 15 15 15 14 14 14 14 14 14 13 13 13 12 12 12 13 13 12 11 11 10 10 9 9 9 9 9 9 9 9 9 9 8 8 8 7 7 7 7 7
15 15 15 15 14 14 14 14 14 14 14 14 13 13 13 12 11 11 12 12 12 12 10 9 9 9 9 8 8 9 9 9 8 8 8 8 8 8 8 7 7 7 6
14 15 15 14 13 14 14 13 14 14 14 13 13 13 12 12 11 11 11 10 10 11 11 10 9 8 8 8 7 8 8 8 8 8 8 7 7 7 7 7 7 7 6
14 15 15 13 14 14 13 13 13 13 14 14 13 13 12 11 11 11 11 10 10 9 9 9 9 9 8 7 6 6 7 7 7 7 7 6 6 6 6 6 6 6 6
14 14 15 13 13 13 14 13 12 12 12 12 13 14 12 10 10 10 10 10 10 9 9 8 8 9 9 7 6 6 6 6 6 6 6 5 5 5 5 6 6 6 6
14 14 14 13 13 14 12 12 12 13 13 12 13 12 14 13 10 10 10 9 9 9 9 8 8 7 7 8 7 5 4 4 4 4 4 4 5 5 5 5 5 6 6
14 14 12 13 12 13 12 12 12 13 13 11 11 12 14 15 13 12 9 9 9 8 8 8 8 7 6 6 6 6 4 3 3 3 3 4 4 4 4 4 4 5 5
13 13 12 12 12 13 13 12 12 12 12 12 10 10 10 11 13 14 11 9 8 8 8 8 7 7 6 5 5 4 3 2 3 2 1 2 2 2 3 3 3 4 4
12 12 11 11 11 12 12 11 11 11 11 11 10 10 9 10 10 11 12 12 10 9 8 7 7 6 6 5 4 4 2 1 1 1 0 1 1 1 2 2 2 3 3
11 11 11 11 11 11 11 10 10 10 9 8 8 9 10 11 11 11 11 10 10 9 8 6 6 6 5 4 3 2 0 0 0 0 -1 -1 -1 -0 0 1 1 1 2
11 11 11 11 11 11 10 10 9 8 8 7 8 9 9 9 9 9 9 9 9 9 8 7 6 5 5 4 3 1 0 -0 -0 -1 -1 -2 -2 -2 -1 -1 -0 0 1
13 11 10 10 10 10 9 9 8 7 6 7 8 8 9 8 8 8 8 8 8 8 8 7 6 5 4 4 3 1 1 1 -1 -2 -2 -3 -3 -3 -2 -2 -2 -1 -1
12 10 10 9 9 8 7 8 7 7 6 6 7 7 6 8 7 7 7 6 6 6 8 7 6 5 4 3 3 1 0 0 -1 -2 -3 -4 -4 -3 -3 -3 -2 -2 -2
11 9 10 9 8 7 7 7 7 5 4 5 5 4 7 7 7 6 6 6 6 6 7 6 6 5 4 3 2 1 0 -1 -1 -2 -3 -4 -4 -4 -4 -4 -3 -3 -3
10 9 9 8 7 6 7 6 5 4 4 4 4 5 6 6 6 6 6 6 5 5 6 6 5 5 4 2 1 1 1 -0 -0 -1 -2 -3 -4 -5 -5 -4 -4 -4 -4
8 8 7 7 5 6 6 5 4 4 4 3 4 5 6 6 6 6 6 5 5 5 5 5 5 4 4 3 1 0 0 -0 -0 -1 -2 -4 -4 -5 -5 -5 -4 -4 -4
8 7 6 5 4 6 5 4 3 3 4 4 4 5 6 6 6 6 5 5 5 5 4 4 4 4 3 3 2 1 0 -0 -0 -1 -1 -2 -3 -4 -4 -4 -4 -4 -4
6 5 4 4 6 5 4 4 4 3 3 3 4 4 5 5 5 5 5 5 4 4 4 4 4 3 3 3 2 1 1 0 0 -0 -1 -1 -2 -2 -3 -3 -4 -4 -4
5 4 5 5 5 4 4 4 3 3 2 3 4 5 5 4 4 5 5 5 4 4 3 4 3 3 3 3 2 1 0 -0 -0 -1 -1 -1 -1 -1 -1 -1 -2 -2 -3
4 5 4 5 5 5 4 3 2 2 2 4 4 4 5 5 3 3 3 3 3 3 3 3 2 2 2 2 1 0 -0 -1 -0 -0 -1 -1 -2 -1 -1 -1 -1 -3 -4
4 5 5 5 4 3 3 2 2 2 3 4 4 4 4 5 4 3 3 2 1 1 1 0 0 1 1 1 0 -0 -1 -1 -1 -1 -2 -2 -2 -2 -2 -1 -2 -3 -4
5 4 4 3 3 3 3 2 3 2 3 4 4 4 4 4 4 3 2 3 2 2 0 -1 -1 0 0 -0 -1 -2 -2 -2 -2 -2 -2 -2 -2 -2 -2 -2 -2 -3 -3
4 3 4 4 4 4 3 3 2 2 3 3 4 4 4 3 3 2 1 1 2 1 0 -1 -1 -1 -2 -2 -3 -4 -3 -2 -2 -2 -2 -2 -2 -2 -2 -2 -2 -3 -3
4 4 4 4 3 3 3 2 2 2 2 2 3 3 3 2 2 2 1 0 0 1 1 -0 -2 -3 -4 -4 -4 -5 -4 -3 -2 -2 -1 -2 -3 -3 -2 -3 -2 -3 -3
Height
866 869 871 873 876 877 879 881 881 883 882 883 886 886 886 886 885 884 884 882 884 884 885 884 884 885 885 884 883 882 882 881 880 878 878 877 876 874 872 871 870 869 868
866 867 872 871 876 876 878 880 882 883 883 883 884 885 885 885 885 884 884 882 883 883 884 884 884 885 884 884 883 882 881 880 879 878 878 876 875 874 872 870 869 869 867
866 866 870 871 873 875 876 879 880 882 882 882 883 884 884 885 884 884 883 883 883 883 883 883 883 883 883 883 882 881 880 880 879 877 876 875 874 872 870 869 868 867 866
864 866 870 870 873 874 876 877 878 880 881 881 882 882 882 884 883 884 884 883 883 883 882 882 882 882 881 881 880 879 878 877 877 876 875 874 872 871 869 867 866 865 863
862 865 867 867 870 872 874 876 878 876 879 880 881 880 880 881 881 881 882 882 882 883 882 880 881 880 879 879 878 878 877 876 875 874 873 872 871 869 867 865 864 862 861
861 863 865 866 868 870 873 874 876 876 878 880 880 879 880 880 880 881 880 880 880 880 880 880 879 877 877 877 876 875 875 874 873 872 871 870 869 868 866 864 861 860 858
857 861 862 863 865 867 871 872 873 875 877 878 877 876 877 878 879 879 879 878 878 878 878 878 878 876 875 872 872 872 872 871 871 870 869 868 866 865 863 860 858 856 854
854 857 859 861 862 866 868 870 871 873 875 875 875 875 871 872 875 876 875 875 876 876 875 875 874 873 872 871 870 869 869 868 868 867 866 865 863 861 859 857 854 852 850
850 853 855 856 859 862 865 867 868 870 871 873 873 874 869 862 866 867 872 872 873 873 872 871 870 869 869 869 867 866 863 864 863 863 863 861 860 858 856 853 850 848 845
848 850 850 853 855 859 861 863 866 869 869 869 870 871 871 870 863 861 864 866 869 869 868 868 866 865 865 865 864 862 862 861 860 859 859 858 856 854 851 849 846 844 841
843 845 848 850 853 855 857 859 862 864 864 865 866 867 868 866 866 864 858 859 862 863 864 864 863 862 861 862 861 860 859 858 856 855 854 853 851 849 846 844 841 838 836
838 842 845 848 850 852 854 856 857 858 858 859 861 862 863 861 859 860 858 858 859 859 859 860 859 858 858 859 858 857 855 854 852 851 849 847 845 843 840 837 835 833 830
832 835 840 843 846 848 850 853 853 855 856 856 857 858 859 859 858 859 859 857 856 855 854 854 855 855 855 855 855 853 852 849 847 845 843 841 839 836 834 831 828 825 823
825 830 834 837 840 844 845 847 849 852 856 859 856 857 859 858 856 856 857 856 854 851 849 848 849 851 851 852 851 850 849 846 842 839 836 834 832 829 827 824 821 819 817
822 825 829 831 834 838 840 843 847 848 852 857 853 855 858 858 857 855 855 854 854 850 846 844 845 846 847 847 846 846 844 841 836 833 830 827 825 822 820 818 815 813 811
817 820 823 825 830 833 837 841 845 848 851 853 853 853 854 854 854 854 852 851 850 849 843 843 842 842 842 842 842 840 838 834 830 827 824 821 818 816 814 811 809 807 805
811 813 816 822 825 827 833 837 839 847 853 850 850 850 850 849 848 849 847 847 846 844 841 837 837 837 837 838 837 834 832 828 825 822 819 816 813 810 806 803 801 799 797
807 811 814 815 819 824 828 835 841 844 847 846 846 846 845 844 843 844 842 841 841 840 838 834 833 832 831 831 831 829 827 824 820 816 813 810 806 803 799 797 795 793 791
804 808 812 817 821 825 829 830 836 841 842 842 840 840 838 837 837 837 836 836 835 834 833 832 829 828 826 825 825 823 821 818 815 811 807 803 801 798 795 792 790 787 784
804 809 813 817 821 824 829 832 834 836 837 837 836 834 833 832 831 831 830 830 831 829 827 826 823 822 821 819 819 818 814 813 809 806 802 798 795 791 788 785 783 781 778
806 809 813 817 821 826 829 829 830 831 831 830 829 828 827 826 825 824 823 821 822 822 822 819 817 816 814 812 811 811 811 808 804 802 797 794 791 787 783 780 777 774 774
809 812 816 820 822 824 824 826 827 827 827 825 824 823 821 819 817 815 815 815 816 816 814 814 813 811 808 807 808 808 807 804 799 798 794 790 788 782 778 774 772 771 769
812 815 817 819 820 821 822 823 824 824 823 821 819 817 814 812 811 810 808 807 807 807 808 809 807 806 803 804 804 804 803 800 796 793 792 785 783 778 774 770 768 766 764
814 815 816 817 818 819 820 819 820 819 817 815 813 811 809 806 804 803 803 801 801 801 801 800 800 799 799 799 800 800 799 797 793 789 787 781 779 774 770 767 763 760 759
813 814 815 816 816 816 816 816 816 815 812 809 807 804 801 798 797 796 796 795 793 792 793 792 792 792 793 793 795 796 794 792 787 784 781 778 775 771 767 762 757 756 755
813 814 814 814 814 814 813 812 812 811 807 803 800 796 793 791 790 789 788 788 785 783 785 784 785 784 785 787 788 790 789 787 784 779 777 776 772 770 762 759 756 753 749
Wind_Speed
14 14 13 13 12 12 11 10 10 8 8 7 6 6 6 6 7 7 6 6 1 4 7 5 3 3 2 3 4 4 3 5 5 5 7 5 7 11 10 12 13 14 15
12 11 12 12 12 12 11 10 9 7 6 5 4 4 5 5 5 5 3 6 2 6 6 4 3 2 1 2 2 2 3 5 6 8 9 8 8 10 10 10 10 11 13
11 11 11 12 11 11 12 11 9 7 6 4 3 3 4 3 3 2 2 3 3 6 8 6 5 4 1 2 4 7 8 10 10 11 12 10 13 9 10 10 9 10 12
12 12 11 11 12 13 11 10 8 6 4 3 2 2 2 2 3 2 1 1 1 2 2 5 7 7 6 5 8 11 12 13 12 12 12 13 12 13 13 12 12 12 12
14 12 12 13 15 12 11 9 8 6 4 3 3 1 1 3 2 2 3 2 2 2 4 8 10 10 10 9 9 10 11 12 12 13 13 13 14 15 15 15 15 14 15
13 13 13 14 15 13 12 10 9 6 5 4 3 2 3 5 5 6 6 6 4 5 7 8 8 8 10 12 10 10 11 12 13 13 12 14 15 16 16 17 17 17 16
14 14 14 15 15 14 12 11 9 8 6 4 3 4 5 5 9 10 9 8 7 8 8 7 8 9 13 11 12 10 10 12 13 13 15 16 16 17 18 18 19 18 18
15 16 15 17 16 14 13 12 10 8 6 4 1 3 4 7 10 12 10 10 9 9 8 8 10 14 14 12 13 14 12 12 12 14 16 17 18 18 18 19 20 20 21
19 17 18 19 18 16 15 13 11 10 8 5 3 3 3 4 6 9 11 10 9 9 11 12 13 13 12 13 15 12 11 14 14 13 16 17 18 19 20 21 22 23 23
18 17 18 22 20 17 16 14 12 11 8 6 6 10 12 9 4 5 9 8 9 11 11 14 14 13 13 14 13 15 15 12 12 12 13 17 20 22 23 24 24 25 25
17 17 19 21 22 19 17 17 16 13 10 7 10 7 11 11 10 8 7 7 9 11 11 13 13 13 12 12 11 11 13 13 14 16 18 21 24 26 27 28 28 29 29
17 19 19 20 20 19 20 19 17 15 13 13 12 12 12 9 8 9 8 11 12 12 10 12 10 11 11 11 11 13 14 17 19 22 22 21 22 24 25 25 26 27 28
25 28 26 23 22 21 20 19 19 14 12 12 12 11 11 11 9 9 10 12 11 12 11 9 11 11 12 12 12 14 14 21 24 24 23 21 22 22 23 24 24 25 26
32 29 29 26 22 22 25 24 17 11 9 12 10 9 10 11 10 9 10 11 8 12 12 12 11 12 13 14 14 21 18 20 22 25 25 22 22 23 23 24 24 25 25
30 26 26 27 27 23 24 22 14 13 12 13 9 9 13 12 11 11 11 10 11 8 8 12 12 12 14 16 17 18 21 21 24 27 22 21 22 22 23 24 25 25 26
26 24 30 29 24 26 25 17 13 13 12 12 12 13 14 13 13 13 12 13 13 15 11 15 17 17 15 18 18 19 21 22 23 23 22 22 22 23 24 25 26 26 27
23 28 26 24 26 29 24 16 16 11 12 15 14 16 17 16 16 16 15 15 16 16 18 20 19 19 16 19 21 20 21 22 23 22 21 23 23 24 25 25 25 24 23
20 20 24 29 25 28 20 16 12 12 17 17 16 18 18 17 18 19 19 18 18 20 20 22 22 22 20 18 20 21 21 21 22 22 22 24 24 24 23 22 21 22 23
16 19 23 16 19 20 17 16 18 21 24 18 17 20 20 18 21 22 21 20 21 21 19 21 23 21 21 19 20 20 20 21 20 20 23 23 20 21 22 23 24 25 25
11 15 16 17 18 13 11 12 18 22 16 18 19 20 21 23 25 25 24 21 21 21 21 22 22 22 21 19 18 19 20 18 21 20 22 21 20 22 24 23 23 24 23
12 14 17 15 12 10 13 18 20 18 17 19 21 22 23 25 26 27 26 25 21 20 22 22 21 21 21 20 17 17 19 20 20 19 18 18 20 23 22 21 20 19 15
15 14 13 11 9 14 16 17 16 18 17 20 21 22 23 25 26 30 31 32 27 24 24 22 22 21 23 19 18 18 18 18 17 16 16 23 20 22 22 20 17 19 22
16 11 7 8 12 14 14 15 15 16 19 20 22 22 23 23 20 22 23 26 29 28 27 26 25 25 22 20 19 18 18 18 20 20 20 23 20 22 20 21 19 22 22
5 3 8 10 10 11 11 13 15 16 18 21 22 23 24 23 23 21 21 23 24 25 23 26 26 26 22 19 17 18 18 20 21 20 17 21 20 20 21 23 22 20 17
4 4 5 6 8 10 12 14 16 17 21 24 24 24 25 24 23 22 22 25 26 26 25 27 27 23 23 23 22 18 18 18 18 19 17 18 15 21 22 23 14 9 15
2 3 4 6 9 11 13 16 16 18 22 25 26 27 27 27 26 25 24 25 26 30 23 24 20 20 23 21 22 19 19 18 18 18 13 14 18 20 16 18 13 23 20
Wind_Direction
160 158 161 160 165 160 160 150 138 139 115 94 74 54 45 36 25 18 13 10 140 159 174 146 124 115 110 80 63 36 29 9 9 18 358 357 358 355 6 3 5 7 6
169 162 171 167 169 164 158 153 153 141 127 117 80 63 52 38 28 30 27 42 103 164 141 146 170 182 210 254 303 360 350 333 326 324 325 320 328 332 340 347 353 356 356
182 174 175 171 167 166 157 156 150 148 136 116 87 69 46 35 17 18 96 114 85 184 185 179 154 174 194 280 304 308 308 308 305 306 307 311 315 314 326 330 329 334 340
193 183 184 172 171 168 168 169 161 160 145 119 114 61 27 353 359 16 111 95 116 175 255 248 233 243 258 292 297 298 298 300 301 302 304 304 309 311 311 312 309 314 319
198 186 181 178 175 174 175 172 178 168 157 156 180 189 266 280 242 197 188 187 217 234 281 282 269 270 279 290 297 296 293 295 296 299 301 303 305 306 305 303 302 301 306
189 182 184 181 177 183 183 181 179 160 166 184 209 240 286 265 238 231 220 218 223 249 285 273 271 273 289 292 294 292 291 292 295 294 297 301 303 304 303 301 297 296 297
190 192 191 186 189 189 190 180 166 159 170 192 253 257 271 248 233 231 231 240 248 272 277 265 273 283 295 291 288 275 288 291 292 290 297 300 301 300 300 298 294 289 289
196 200 200 195 189 193 185 179 177 181 191 193 267 323 275 214 228 233 236 243 256 271 272 261 277 289 285 282 291 284 284 289 293 292 295 295 296 298 298 297 294 291 289
206 204 204 198 190 191 191 189 189 197 202 197 210 277 283 294 334 221 236 246 250 263 285 279 290 293 284 281 288 282 276 279 284 295 296 295 297 299 300 298 295 293 291
210 206 205 203 194 194 194 190 191 199 194 212 211 233 245 269 276 270 203 227 239 275 286 290 292 285 278 282 283 277 272 278 283 289 303 301 300 298 296 294 292 289 287
208 208 204 203 195 191 196 193 189 192 202 223 224 229 238 246 251 265 281 269 267 282 291 290 292 289 287 285 281 269 275 283 285 286 297 298 294 291 290 289 286 285 285
209 209 205 205 202 200 198 196 195 197 201 216 216 227 245 251 257 253 262 276 293 291 289 298 300 290 285 278 273 263 286 290 293 298 300 298 294 292 291 289 287 285 283
208 212 206 204 205 206 199 198 200 204 230 212 209 230 240 246 250 257 271 279 287 291 291 279 285 283 283 274 278 279 291 302 301 300 299 298 295 294 293 291 289 288 286
219 216 205 205 205 203 197 203 205 228 215 224 217 233 254 247 238 246 265 284 288 292 292 287 277 276 271 277 273 286 296 292 295 294 300 297 296 295 293 291 291 290 287
221 212 213 204 203 201 197 203 221 212 202 226 209 232 253 259 252 252 263 276 281 292 291 300 291 281 272 273 278 279 289 292 286 296 296 295 294 293 291 291 291 289 287
217 216 219 213 200 199 198 208 215 198 211 220 241 247 248 255 254 256 258 266 272 279 285 291 293 290 283 280 279 285 289 292 298 295 293 294 294 295 293 290 288 286 286
215 220 214 203 196 200 196 205 193 209 228 234 241 246 249 252 251 256 257 264 274 274 277 283 285 289 275 277 284 287 290 293 295 294 292 292 295 295 292 288 287 287 286
228 218 206 196 195 198 200 195 191 214 246 251 248 254 254 259 253 255 260 260 265 267 275 285 288 288 283 279 285 288 289 291 292 292 291 292 295 293 290 288 287 287 286
229 209 201 195 192 192 193 201 204 241 260 253 254 256 257 262 259 254 257 253 264 267 271 275 282 285 284 282 280 284 288 292 291 292 295 298 292 292 290 287 285 285 284
196 196 188 188 188 194 188 207 230 251 253 257 258 262 262 263 263 256 259 253 265 270 271 272 276 282 281 282 282 282 287 292 295 297 297 293 291 297 291 282 283 284 284
143 155 168 172 179 178 224 243 255 246 256 265 267 268 270 266 259 253 257 257 256 264 268 272 274 278 279 279 279 291 289 291 294 296 297 296 302 301 299 294 285 279 280
129 137 133 144 199 237 258 269 261 271 268 269 274 274 275 272 266 256 253 250 251 263 264 268 271 274 277 280 280 284 285 290 294 299 300 302 303 301 302 295 289 287 297
125 135 174 227 262 271 270 275 270 271 273 272 275 277 276 274 265 259 258 252 249 250 249 258 262 266 276 276 279 280 277 280 288 297 299 297 303 301 304 300 292 293 297
146 249 282 281 270 273 274 276 280 279 274 272 273 276 278 277 271 259 256 250 255 258 252 253 250 261 267 268 269 274 278 281 283 287 293 294 304 301 307 303 298 289 287
289 273 275 281 280 283 279 282 288 284 279 276 278 277 274 271 269 265 255 259 261 261 260 247 243 247 250 252 258 268 268 273 280 289 298 292 299 308 309 308 306 313 297
316 308 303 299 292 289 286 290 297 292 286 284 281 279 274 266 265 262 253 255 256 261 261 251 245 249 253 255 261 245 255 265 274 285 291 287 303 307 311 303 299 307 302